| time (UTC) | temp F | wind direction | speed MPH | gust MPH | rain 1hr in | rain 24hr in | rain mn in | humidity % | barometer mb |
| 20260508053004 | 41 | 0 | 0.0 | 6.0 | 0.00 | 0.01 | 0.00 | 81 | 1016.4 |
| 20260508052503 | 41 | 7 | 2.0 | 6.0 | 0.00 | 0.01 | 0.00 | 81 | 1016.3 |
| 20260508052003 | 41 | 0 | 0.0 | 1.0 | 0.00 | 0.01 | 0.00 | 82 | 1016.2 |
| 20260508051002 | 42 | 332 | 2.0 | 5.0 | 0.00 | 0.01 | 0.00 | 80 | 1016.1 |
| 20260508050503 | 42 | 326 | 1.0 | 3.0 | 0.00 | 0.01 | 0.00 | 80 | 1016.0 |
| 20260508050003 | 42 | 336 | 1.0 | 2.0 | 0.00 | 0.01 | 0.00 | 81 | 1016.0 |
| 20260508045002 | 42 | 0 | 0.0 | 2.0 | 0.00 | 0.01 | 0.00 | 81 | 1015.8 |
| 20260508044503 | 42 | 336 | 0.0 | 2.0 | 0.00 | 0.01 | 0.00 | 81 | 1015.8 |
| 20260508044002 | 42 | 336 | 1.0 | 2.0 | 0.00 | 0.01 | 0.00 | 80 | 1015.7 |
| 20260508043504 | 43 | 331 | 1.0 | 3.0 | 0.00 | 0.01 | 0.00 | 79 | 1015.7 |
| 20260508043005 | 43 | 331 | 0.0 | 3.0 | 0.00 | 0.01 | 0.00 | 79 | 1015.6 |
| 20260508042002 | 44 | 324 | 1.0 | 7.0 | 0.00 | 0.01 | 0.00 | 79 | 1015.6 |
| 20260508041504 | 44 | 323 | 3.0 | 7.0 | 0.00 | 0.01 | 0.00 | 78 | 1015.6 |
| 20260508041003 | 44 | 3 | 2.0 | 5.0 | 0.00 | 0.01 | 0.00 | 79 | 1015.6 |
| 20260508040502 | 44 | 264 | 2.0 | 3.0 | 0.00 | 0.01 | 0.00 | 78 | 1015.6 |
| 20260508040012 | 44 | 332 | 0.0 | 5.0 | 0.00 | 0.01 | 0.00 | 79 | 1015.5 |
| 20260508035503 | 44 | 0 | 0.0 | 5.0 | 0.00 | 0.01 | 0.01 | 79 | 1015.4 |
| 20260508035003 | 44 | 339 | 1.0 | 7.0 | 0.00 | 0.01 | 0.01 | 79 | 1015.3 |
| 20260508034502 | 44 | 346 | 3.0 | 7.0 | 0.00 | 0.01 | 0.01 | 79 | 1015.2 |
| 20260508034003 | 45 | 1 | 1.0 | 3.0 | 0.00 | 0.01 | 0.01 | 79 | 1015.2 |
| 20260508033503 | 45 | 1 | 0.0 | 9.0 | 0.00 | 0.01 | 0.01 | 78 | 1015.4 |
| 20260508033003 | 45 | 312 | 4.0 | 9.0 | 0.00 | 0.01 | 0.01 | 77 | 1015.4 |
| 20260508032503 | 46 | 338 | 1.0 | 3.0 | 0.00 | 0.01 | 0.01 | 78 | 1015.4 |
| 20260508032003 | 46 | 338 | 2.0 | 5.0 | 0.00 | 0.01 | 0.01 | 77 | 1015.4 |
| 20260508031503 | 46 | 338 | 1.0 | 5.0 | 0.00 | 0.01 | 0.01 | 76 | 1015.4 |
| 20260508030503 | 46 | 12 | 6.0 | 9.0 | 0.00 | 0.02 | 0.01 | 76 | 1015.2 |
| 20260508030004 | 46 | 329 | 3.0 | 8.0 | 0.00 | 0.02 | 0.01 | 75 | 1015.2 |
| 20260508025003 | 47 | 341 | 2.0 | 3.0 | 0.00 | 0.02 | 0.01 | 76 | 1015.0 |
| 20260508024503 | 48 | 341 | 3.0 | 3.0 | 0.00 | 0.02 | 0.01 | 75 | 1015.0 |
| 20260508024003 | 48 | 341 | 2.0 | 7.0 | 0.00 | 0.02 | 0.01 | 74 | 1015.0 |
| 20260508023502 | 48 | 339 | 2.0 | 12.0 | 0.00 | 0.03 | 0.01 | 72 | 1014.9 |
| 20260508023004 | 48 | 311 | 8.0 | 12.0 | 0.00 | 0.03 | 0.01 | 72 | 1015.0 |
| 20260508022003 | 48 | 24 | 6.0 | 9.0 | 0.00 | 0.09 | 0.01 | 74 | 1014.9 |
| 20260508021503 | 48 | 343 | 0.0 | 6.0 | 0.00 | 0.10 | 0.01 | 75 | 1014.8 |
| 20260508021002 | 48 | 316 | 2.0 | 8.0 | 0.00 | 0.11 | 0.01 | 74 | 1014.7 |
| 20260508020503 | 48 | 316 | 3.0 | 8.0 | 0.00 | 0.12 | 0.01 | 75 | 1014.6 |
| 20260508020004 | 47 | 332 | 3.0 | 9.0 | 0.00 | 0.14 | 0.01 | 76 | 1014.5 |
| 20260508015502 | 47 | 355 | 3.0 | 9.0 | 0.00 | 0.16 | 0.01 | 76 | 1014.4 |
| 20260508015003 | 47 | 331 | 1.0 | 5.0 | 0.00 | 0.16 | 0.01 | 76 | 1014.3 |
| 20260508014504 | 47 | 46 | 2.0 | 3.0 | 0.00 | 0.16 | 0.01 | 77 | 1014.3 |
| 20260508013503 | 48 | 331 | 1.0 | 10.0 | 0.00 | 0.16 | 0.01 | 76 | 1014.2 |
| 20260508013004 | 48 | 36 | 3.0 | 5.0 | 0.00 | 0.16 | 0.01 | 75 | 1013.9 |
| 20260508012502 | 48 | 27 | 2.0 | 6.0 | 0.00 | 0.16 | 0.01 | 75 | 1013.8 |
| 20260508012003 | 48 | 24 | 2.0 | 6.0 | 0.00 | 0.16 | 0.01 | 75 | 1013.9 |
| 20260508011503 | 48 | 331 | 3.0 | 6.0 | 0.00 | 0.16 | 0.01 | 75 | 1013.9 |
| 20260508010004 | 50 | 346 | 4.0 | 14.0 | 0.00 | 0.16 | 0.01 | 72 | 1013.7 |
| 20260508005502 | 49 | 3 | 5.0 | 7.0 | 0.00 | 0.16 | 0.01 | 73 | 1013.7 |
| 20260508005003 | 49 | 5 | 3.0 | 6.0 | 0.00 | 0.16 | 0.01 | 72 | 1013.6 |
| 20260508004503 | 50 | 9 | 4.0 | 13.0 | 0.00 | 0.16 | 0.01 | 72 | 1013.7 |
| 20260508004002 | 49 | 356 | 7.0 | 13.0 | 0.00 | 0.16 | 0.01 | 73 | 1013.7 |
| 20260508003503 | 50 | 22 | 2.0 | 7.0 | 0.00 | 0.16 | 0.01 | 73 | 1013.7 |
| 20260508003004 | 50 | 46 | 5.0 | 6.0 | 0.00 | 0.16 | 0.01 | 73 | 1013.6 |
| 20260508002503 | 51 | 64 | 2.0 | 5.0 | 0.00 | 0.16 | 0.01 | 73 | 1013.5 |
| 20260508001504 | 52 | 290 | 4.0 | 10.0 | 0.00 | 0.16 | 0.01 | 67 | 1013.5 |
| 20260508001003 | 52 | 273 | 6.0 | 10.0 | 0.00 | 0.16 | 0.01 | 67 | 1013.5 |
| 20260508000504 | 52 | 293 | 3.0 | 12.0 | 0.00 | 0.16 | 0.01 | 67 | 1013.5 |
| 20260508000003 | 52 | 338 | 5.0 | 12.0 | 0.00 | 0.16 | 0.01 | 67 | 1013.4 |
| 20260507234503 | 54 | 286 | 8.0 | 13.0 | 0.00 | 0.16 | 0.01 | 65 | 1013.3 |
| 20260507234002 | 54 | 290 | 7.0 | 15.0 | 0.00 | 0.16 | 0.01 | 64 | 1013.2 |
| 20260507233503 | 54 | 322 | 9.0 | 15.0 | 0.00 | 0.16 | 0.01 | 64 | 1013.1 |
| 20260507233004 | 54 | 345 | 4.0 | 14.0 | 0.00 | 0.16 | 0.01 | 65 | 1013.1 |
| 20260507232503 | 54 | 308 | 8.0 | 14.0 | 0.00 | 0.16 | 0.01 | 66 | 1013.1 |
| 20260507232002 | 54 | 316 | 10.0 | 16.0 | 0.00 | 0.16 | 0.01 | 67 | 1013.0 |
| 20260507231504 | 54 | 316 | 5.0 | 16.0 | 0.00 | 0.16 | 0.01 | 68 | 1012.8 |
| 20260507231003 | 54 | 304 | 3.0 | 12.0 | 0.00 | 0.16 | 0.01 | 67 | 1012.8 |
| 20260507230503 | 54 | 246 | 5.0 | 13.0 | 0.00 | 0.16 | 0.01 | 66 | 1012.8 |
| 20260507230003 | 55 | 313 | 5.0 | 15.0 | 0.00 | 0.16 | 0.01 | 68 | 1012.7 |
| 20260507225503 | 56 | 358 | 7.0 | 17.0 | 0.00 | 0.16 | 0.01 | 68 | 1012.7 |
| 20260507225003 | 56 | 321 | 10.0 | 17.0 | 0.00 | 0.16 | 0.01 | 69 | 1012.6 |
| 20260507224003 | 56 | 2 | 11.0 | 15.0 | 0.00 | 0.16 | 0.01 | 70 | 1012.5 |
| 20260507223003 | 56 | 335 | 10.0 | 16.0 | 0.00 | 0.16 | 0.01 | 69 | 1012.4 |
| 20260507222503 | 56 | 325 | 10.0 | 15.0 | 0.00 | 0.16 | 0.01 | 69 | 1012.4 |
| 20260507221503 | 58 | 265 | 9.0 | 14.0 | 0.00 | 0.16 | 0.01 | 68 | 1012.3 |
| 20260507221003 | 58 | 341 | 5.0 | 14.0 | 0.00 | 0.16 | 0.01 | 69 | 1012.2 |
| 20260507220503 | 58 | 307 | 8.0 | 14.0 | 0.00 | 0.16 | 0.01 | 66 | 1012.2 |
| 20260507220004 | 58 | 322 | 7.0 | 13.0 | 0.00 | 0.16 | 0.01 | 67 | 1012.1 |
| 20260507215003 | 59 | 327 | 7.0 | 15.0 | 0.00 | 0.16 | 0.01 | 71 | 1012.1 |
| 20260507214503 | 58 | 252 | 9.0 | 16.0 | 0.00 | 0.16 | 0.01 | 70 | 1012.1 |
| 20260507214002 | 58 | 295 | 7.0 | 16.0 | 0.00 | 0.16 | 0.01 | 70 | 1012.0 |
| 20260507213503 | 58 | 315 | 8.0 | 22.0 | 0.00 | 0.16 | 0.01 | 71 | 1012.0 |
| 20260507213004 | 58 | 277 | 15.0 | 22.0 | 0.00 | 0.16 | 0.01 | 68 | 1012.1 |
| 20260507212503 | 58 | 247 | 9.0 | 15.0 | 0.00 | 0.16 | 0.01 | 71 | 1012.2 |
| 20260507212003 | 58 | 262 | 6.0 | 16.0 | 0.00 | 0.16 | 0.01 | 73 | 1012.1 |
| 20260507211504 | 58 | 274 | 10.0 | 16.0 | 0.00 | 0.16 | 0.01 | 72 | 1012.0 |
| 20260507211003 | 58 | 270 | 8.0 | 20.0 | 0.00 | 0.16 | 0.01 | 75 | 1012.0 |
| 20260507210503 | 57 | 283 | 5.0 | 20.0 | 0.00 | 0.16 | 0.01 | 77 | 1012.0 |
| 20260507205503 | 56 | 339 | 5.0 | 16.0 | 0.00 | 0.16 | 0.01 | 77 | 1011.8 |
| 20260507204504 | 57 | 325 | 7.0 | 15.0 | 0.00 | 0.16 | 0.01 | 76 | 1011.7 |
| 20260507204003 | 57 | 325 | 7.0 | 15.0 | 0.00 | 0.16 | 0.01 | 79 | 1011.8 |
| 20260507203503 | 56 | 342 | 3.0 | 10.0 | 0.00 | 0.16 | 0.01 | 78 | 1011.7 |
| 20260507203004 | 56 | 303 | 4.0 | 13.0 | 0.00 | 0.16 | 0.01 | 79 | 1011.7 |
| 20260507202503 | 56 | 337 | 6.0 | 14.0 | 0.00 | 0.16 | 0.01 | 78 | 1011.8 |
| 20260507202004 | 56 | 272 | 8.0 | 16.0 | 0.00 | 0.16 | 0.01 | 79 | 1011.8 |
| 20260507201503 | 56 | 323 | 6.0 | 16.0 | 0.00 | 0.16 | 0.01 | 77 | 1011.8 |
| 20260507201004 | 56 | 325 | 6.0 | 10.0 | 0.00 | 0.16 | 0.01 | 81 | 1011.8 |
| 20260507200503 | 55 | 37 | 3.0 | 13.0 | 0.00 | 0.16 | 0.01 | 80 | 1011.9 |
| 20260507195503 | 54 | 346 | 4.0 | 10.0 | 0.00 | 0.16 | 0.01 | 82 | 1012.0 |
| 20260507195003 | 54 | 263 | 6.0 | 9.0 | 0.00 | 0.16 | 0.01 | 84 | 1012.2 |
| 20260507194504 | 54 | 318 | 6.0 | 12.0 | 0.00 | 0.16 | 0.01 | 82 | 1012.3 |
| 20260507194003 | 54 | 305 | 2.0 | 12.0 | 0.00 | 0.16 | 0.01 | 85 | 1012.3 |
| 20260507193502 | 53 | 225 | 4.0 | 8.0 | 0.00 | 0.16 | 0.01 | 87 | 1012.4 |
| 20260507193003 | 53 | 216 | 3.0 | 8.0 | 0.00 | 0.16 | 0.01 | 86 | 1012.5 |
| 20260507192504 | 53 | 226 | 4.0 | 8.0 | 0.00 | 0.16 | 0.01 | 88 | 1012.5 |
| 20260507192003 | 52 | 229 | 3.0 | 12.0 | 0.00 | 0.16 | 0.01 | 87 | 1012.7 |
| 20260507191504 | 52 | 257 | 8.0 | 12.0 | 0.00 | 0.16 | 0.01 | 86 | 1012.8 |
| 20260507191003 | 52 | 338 | 6.0 | 13.0 | 0.00 | 0.16 | 0.01 | 85 | 1012.7 |
| 20260507190503 | 52 | 277 | 7.0 | 13.0 | 0.00 | 0.16 | 0.01 | 84 | 1012.9 |
| 20260507190004 | 53 | 292 | 3.0 | 14.0 | 0.00 | 0.16 | 0.01 | 84 | 1012.7 |
| 20260507185503 | 52 | 6 | 4.0 | 14.0 | 0.00 | 0.16 | 0.01 | 85 | 1012.7 |
| 20260507185003 | 52 | 359 | 7.0 | 13.0 | 0.00 | 0.16 | 0.01 | 84 | 1012.8 |
| 20260507184504 | 53 | 4 | 7.0 | 13.0 | 0.00 | 0.16 | 0.01 | 84 | 1012.9 |
| 20260507183504 | 53 | 359 | 6.0 | 10.0 | 0.00 | 0.16 | 0.01 | 84 | 1012.9 |
| 20260507183005 | 53 | 24 | 3.0 | 8.0 | 0.00 | 0.16 | 0.01 | 85 | 1012.9 |
| 20260507182503 | 52 | 11 | 5.0 | 8.0 | 0.00 | 0.16 | 0.01 | 86 | 1012.8 |
| 20260507182003 | 52 | 324 | 1.0 | 9.0 | 0.00 | 0.16 | 0.01 | 86 | 1012.9 |
| 20260507181003 | 52 | 287 | 9.0 | 12.0 | 0.00 | 0.16 | 0.01 | 85 | 1012.9 |
| 20260507180503 | 52 | 321 | 5.0 | 9.0 | 0.01 | 0.16 | 0.01 | 87 | 1012.8 |
| 20260507175503 | 52 | 6 | 2.0 | 8.0 | 0.01 | 0.16 | 0.01 | 88 | 1013.1 |
| 20260507175003 | 52 | 11 | 3.0 | 6.0 | 0.01 | 0.16 | 0.01 | 88 | 1012.8 |
| 20260507174503 | 52 | 6 | 2.0 | 9.0 | 0.01 | 0.16 | 0.01 | 89 | 1013.0 |
| 20260507174003 | 52 | 332 | 4.0 | 9.0 | 0.01 | 0.16 | 0.01 | 89 | 1012.9 |
| 20260507173503 | 52 | 314 | 5.0 | 9.0 | 0.01 | 0.16 | 0.01 | 89 | 1013.1 |
| 20260507173004 | 52 | 329 | 5.0 | 8.0 | 0.01 | 0.16 | 0.01 | 89 | 1012.9 |
| 20260507172503 | 52 | 311 | 5.0 | 8.0 | 0.01 | 0.16 | 0.01 | 89 | 1013.0 |
| 20260507172002 | 52 | 342 | 5.0 | 9.0 | 0.01 | 0.16 | 0.01 | 90 | 1013.0 |
| 20260507171503 | 52 | 333 | 3.0 | 9.0 | 0.01 | 0.16 | 0.01 | 90 | 1012.9 |
| 20260507171002 | 52 | 16 | 4.0 | 8.0 | 0.01 | 0.16 | 0.01 | 91 | 1012.8 |
| 20260507170503 | 52 | 45 | 5.0 | 8.0 | 0.00 | 0.15 | 0.00 | 90 | 1013.1 |
| 20260507170004 | 52 | 11 | 3.0 | 6.0 | 0.00 | 0.15 | 0.00 | 90 | 1013.1 |
| 20260507164504 | 52 | 321 | 4.0 | 6.0 | 0.00 | 0.16 | 0.00 | 91 | 1013.1 |
| 20260507164003 | 52 | 6 | 3.0 | 6.0 | 0.00 | 0.16 | 0.00 | 91 | 1013.2 |
| 20260507163503 | 52 | 1 | 4.0 | 7.0 | 0.00 | 0.16 | 0.00 | 90 | 1013.1 |
| 20260507163003 | 52 | 356 | 5.0 | 7.0 | 0.00 | 0.17 | 0.00 | 90 | 1013.1 |
| 20260507162503 | 52 | 338 | 3.0 | 8.0 | 0.00 | 0.17 | 0.00 | 91 | 1013.2 |
| 20260507162003 | 52 | 3 | 5.0 | 8.0 | 0.00 | 0.17 | 0.00 | 91 | 1013.1 |
| 20260507161503 | 52 | 61 | 3.0 | 7.0 | 0.00 | 0.17 | 0.00 | 91 | 1013.1 |
| 20260507161003 | 52 | 344 | 4.0 | 12.0 | 0.00 | 0.17 | 0.00 | 91 | 1013.0 |
| 20260507160503 | 52 | 350 | 7.0 | 12.0 | 0.00 | 0.17 | 0.00 | 91 | 1013.0 |
| 20260507160003 | 52 | 340 | 7.0 | 9.0 | 0.00 | 0.17 | 0.00 | 92 | 1013.1 |
| 20260507155503 | 52 | 4 | 7.0 | 9.0 | 0.00 | 0.17 | 0.00 | 92 | 1013.2 |
| 20260507155004 | 52 | 2 | 6.0 | 9.0 | 0.00 | 0.17 | 0.00 | 92 | 1013.3 |
| 20260507154505 | 52 | 17 | 7.0 | 9.0 | 0.00 | 0.17 | 0.00 | 92 | 1013.3 |
| 20260507153504 | 52 | 338 | 4.0 | 10.0 | 0.00 | 0.17 | 0.00 | 93 | 1013.5 |
| 20260507153004 | 52 | 18 | 8.0 | 12.0 | 0.00 | 0.17 | 0.00 | 93 | 1013.5 |
| 20260507152503 | 52 | 344 | 7.0 | 12.0 | 0.00 | 0.17 | 0.00 | 92 | 1013.6 |
| 20260507151504 | 52 | 355 | 4.0 | 9.0 | 0.00 | 0.17 | 0.00 | 93 | 1013.5 |
| 20260507151003 | 53 | 14 | 6.0 | 9.0 | 0.00 | 0.17 | 0.00 | 92 | 1013.3 |
| 20260507150503 | 53 | 359 | 6.0 | 9.0 | 0.00 | 0.17 | 0.00 | 93 | 1013.5 |
| 20260507150005 | 53 | 2 | 4.0 | 9.0 | 0.00 | 0.17 | 0.00 | 93 | 1013.4 |
| 20260507145003 | 53 | 336 | 5.0 | 10.0 | 0.00 | 0.17 | 0.00 | 93 | 1013.2 |
| 20260507144503 | 54 | 3 | 5.0 | 10.0 | 0.00 | 0.17 | 0.00 | 92 | 1013.2 |
| 20260507144003 | 54 | 1 | 4.0 | 9.0 | 0.00 | 0.17 | 0.00 | 92 | 1013.2 |
| 20260507143503 | 54 | 13 | 4.0 | 7.0 | 0.00 | 0.17 | 0.00 | 91 | 1013.2 |
| 20260507143004 | 54 | 327 | 5.0 | 9.0 | 0.00 | 0.17 | 0.00 | 90 | 1013.2 |
| 20260507142504 | 54 | 345 | 6.0 | 9.0 | 0.00 | 0.17 | 0.00 | 90 | 1013.0 |
| 20260507142003 | 54 | 345 | 5.0 | 7.0 | 0.00 | 0.17 | 0.00 | 91 | 1013.0 |
| 20260507141504 | 54 | 304 | 3.0 | 6.0 | 0.00 | 0.17 | 0.00 | 90 | 1013.2 |
| 20260507141003 | 54 | 305 | 5.0 | 9.0 | 0.00 | 0.17 | 0.00 | 90 | 1013.4 |
| 20260507140503 | 54 | 355 | 4.0 | 9.0 | 0.00 | 0.17 | 0.00 | 90 | 1013.4 |
| 20260507140004 | 54 | 350 | 5.0 | 7.0 | 0.00 | 0.17 | 0.00 | 90 | 1013.2 |
| 20260507135003 | 54 | 354 | 5.0 | 10.0 | 0.00 | 0.17 | 0.00 | 91 | 1012.8 |
| 20260507134504 | 54 | 311 | 4.0 | 10.0 | 0.00 | 0.18 | 0.00 | 90 | 1013.2 |
| 20260507134003 | 54 | 291 | 4.0 | 13.0 | 0.00 | 0.18 | 0.00 | 91 | 1013.5 |
| 20260507133503 | 55 | 250 | 10.0 | 13.0 | 0.00 | 0.18 | 0.00 | 90 | 1013.7 |
| 20260507133003 | 55 | 297 | 6.0 | 12.0 | 0.00 | 0.19 | 0.00 | 91 | 1013.6 |
| 20260507132503 | 55 | 260 | 4.0 | 9.0 | 0.00 | 0.19 | 0.00 | 91 | 1013.5 |
| 20260507132003 | 55 | 266 | 5.0 | 9.0 | 0.00 | 0.19 | 0.00 | 90 | 1013.4 |
| 20260507131003 | 55 | 279 | 3.0 | 8.0 | 0.00 | 0.19 | 0.00 | 90 | 1013.6 |
| 20260507130503 | 55 | 277 | 5.0 | 8.0 | 0.00 | 0.19 | 0.00 | 91 | 1013.8 |
| 20260507130004 | 55 | 267 | 4.0 | 5.0 | 0.00 | 0.19 | 0.00 | 91 | 1013.7 |
| 20260507125503 | 55 | 260 | 3.0 | 8.0 | 0.00 | 0.19 | 0.00 | 90 | 1013.5 |
| 20260507124504 | 55 | 280 | 4.0 | 9.0 | 0.00 | 0.19 | 0.00 | 91 | 1013.5 |
| 20260507124003 | 55 | 267 | 6.0 | 9.0 | 0.00 | 0.19 | 0.00 | 91 | 1013.6 |
| 20260507123503 | 55 | 242 | 2.0 | 3.0 | 0.00 | 0.19 | 0.00 | 93 | 1013.5 |
| 20260507123004 | 55 | 242 | 1.0 | 3.0 | 0.00 | 0.19 | 0.00 | 92 | 1013.6 |
| 20260507122003 | 54 | 242 | 1.0 | 3.0 | 0.00 | 0.19 | 0.00 | 93 | 1013.8 |
| 20260507121504 | 54 | 267 | 1.0 | 3.0 | 0.00 | 0.19 | 0.00 | 94 | 1013.6 |
| 20260507121004 | 54 | 271 | 1.0 | 3.0 | 0.00 | 0.19 | 0.00 | 94 | 1013.5 |
| 20260507120503 | 54 | 271 | 1.0 | 3.0 | 0.00 | 0.19 | 0.00 | 94 | 1013.4 |
| 20260507120004 | 54 | 246 | 1.0 | 7.0 | 0.00 | 0.19 | 0.00 | 94 | 1013.4 |
| 20260507115504 | 54 | 243 | 2.0 | 7.0 | 0.00 | 0.19 | 0.00 | 94 | 1013.6 |
| 20260507115003 | 54 | 268 | 3.0 | 7.0 | 0.00 | 0.19 | 0.00 | 94 | 1013.6 |
| 20260507114504 | 54 | 203 | 2.0 | 5.0 | 0.00 | 0.19 | 0.00 | 94 | 1013.6 |
| 20260507114003 | 54 | 0 | 0.0 | 2.0 | 0.00 | 0.19 | 0.00 | 94 | 1013.4 |
| 20260507113504 | 54 | 175 | 1.0 | 2.0 | 0.00 | 0.19 | 0.00 | 94 | 1013.4 |
| 20260507113004 | 54 | 166 | 1.0 | 5.0 | 0.00 | 0.19 | 0.00 | 94 | 1013.4 |
| 20260507112503 | 54 | 158 | 2.0 | 5.0 | 0.00 | 0.19 | 0.00 | 94 | 1013.3 |
| 20260507112003 | 54 | 155 | 2.0 | 5.0 | 0.00 | 0.19 | 0.00 | 94 | 1013.2 |
| 20260507111504 | 54 | 210 | 0.0 | 5.0 | 0.00 | 0.19 | 0.00 | 94 | 1013.3 |
| 20260507111004 | 54 | 163 | 2.0 | 5.0 | 0.00 | 0.19 | 0.00 | 94 | 1013.0 |
| 20260507110004 | 54 | 162 | 3.0 | 5.0 | 0.00 | 0.19 | 0.00 | 93 | 1013.0 |
| 20260507105503 | 54 | 164 | 3.0 | 5.0 | 0.00 | 0.19 | 0.00 | 94 | 1013.1 |
| 20260507105003 | 54 | 207 | 2.0 | 5.0 | 0.00 | 0.19 | 0.00 | 93 | 1013.0 |
| 20260507104504 | 54 | 211 | 2.0 | 5.0 | 0.00 | 0.19 | 0.00 | 93 | 1013.0 |
| 20260507104003 | 54 | 211 | 1.0 | 5.0 | 0.00 | 0.19 | 0.00 | 93 | 1013.0 |
| 20260507103004 | 54 | 196 | 2.0 | 3.0 | 0.00 | 0.19 | 0.00 | 93 | 1012.8 |
| 20260507102503 | 55 | 196 | 1.0 | 3.0 | 0.00 | 0.19 | 0.00 | 94 | 1012.9 |
| 20260507102003 | 55 | 196 | 2.0 | 3.0 | 0.00 | 0.19 | 0.00 | 94 | 1013.0 |
| 20260507101504 | 55 | 195 | 2.0 | 3.0 | 0.00 | 0.19 | 0.00 | 94 | 1012.9 |
| 20260507101003 | 55 | 193 | 0.0 | 3.0 | 0.00 | 0.19 | 0.00 | 94 | 1013.0 |
| 20260507100503 | 55 | 192 | 2.0 | 3.0 | 0.00 | 0.19 | 0.00 | 94 | 1013.0 |
| 20260507100005 | 55 | 193 | 1.0 | 2.0 | 0.00 | 0.19 | 0.00 | 94 | 1013.0 |
| 20260507095004 | 55 | 0 | 0.0 | 1.0 | 0.00 | 0.19 | 0.00 | 94 | 1012.7 |
| 20260507094504 | 55 | 0 | 0.0 | 1.0 | 0.00 | 0.19 | 0.00 | 94 | 1013.1 |
| 20260507094003 | 55 | 0 | 0.0 | 2.0 | 0.00 | 0.19 | 0.00 | 93 | 1013.1 |
| 20260507093504 | 55 | 192 | 1.0 | 2.0 | 0.00 | 0.19 | 0.00 | 93 | 1013.0 |
| 20260507093003 | 55 | 0 | 0.0 | 2.0 | 0.00 | 0.19 | 0.00 | 93 | 1012.8 |
| 20260507092005 | 55 | 0 | 0.0 | 1.0 | 0.00 | 0.19 | 0.00 | 93 | 1013.1 |
| 20260507091504 | 55 | 193 | 1.0 | 1.0 | 0.00 | 0.19 | 0.00 | 93 | 1013.0 |
| 20260507091003 | 55 | 0 | 0.0 | 2.0 | 0.00 | 0.19 | 0.00 | 92 | 1013.2 |
| 20260507090503 | 55 | 193 | 1.0 | 3.0 | 0.00 | 0.19 | 0.00 | 92 | 1012.9 |
| 20260507085503 | 56 | 192 | 3.0 | 6.0 | 0.00 | 0.19 | 0.00 | 92 | 1012.2 |
| 20260507085003 | 56 | 192 | 2.0 | 6.0 | 0.00 | 0.19 | 0.00 | 92 | 1012.6 |
| 20260507084504 | 56 | 174 | 2.0 | 6.0 | 0.00 | 0.19 | 0.00 | 92 | 1013.0 |
| 20260507084004 | 56 | 175 | 2.0 | 6.0 | 0.00 | 0.19 | 0.00 | 92 | 1012.9 |
| 20260507083504 | 56 | 224 | 5.0 | 7.0 | 0.00 | 0.19 | 0.00 | 92 | 1013.0 |
| 20260507083004 | 56 | 213 | 3.0 | 8.0 | 0.00 | 0.19 | 0.00 | 92 | 1013.0 |
| 20260507082503 | 56 | 186 | 4.0 | 12.0 | 0.00 | 0.19 | 0.00 | 92 | 1013.2 |
| 20260507082004 | 56 | 182 | 7.0 | 12.0 | 0.00 | 0.19 | 0.00 | 92 | 1012.8 |
| 20260507081504 | 56 | 195 | 4.0 | 9.0 | 0.00 | 0.19 | 0.00 | 92 | 1012.9 |
| 20260507081003 | 56 | 215 | 3.0 | 8.0 | 0.00 | 0.19 | 0.00 | 92 | 1013.0 |
| 20260507080503 | 56 | 208 | 6.0 | 8.0 | 0.00 | 0.19 | 0.00 | 92 | 1013.1 |
| 20260507080005 | 56 | 217 | 3.0 | 7.0 | 0.00 | 0.19 | 0.00 | 92 | 1013.0 |
| 20260507075504 | 57 | 196 | 3.0 | 7.0 | 0.00 | 0.19 | 0.00 | 91 | 1013.2 |
| 20260507075003 | 57 | 192 | 4.0 | 9.0 | 0.00 | 0.19 | 0.00 | 91 | 1013.2 |
| 20260507074504 | 57 | 246 | 4.0 | 9.0 | 0.00 | 0.19 | 0.00 | 91 | 1013.1 |
| 20260507074003 | 57 | 255 | 6.0 | 9.0 | 0.00 | 0.19 | 0.00 | 91 | 1013.3 |
| 20260507073004 | 57 | 243 | 6.0 | 9.0 | 0.00 | 0.19 | 0.00 | 91 | 1013.3 |
| 20260507072504 | 57 | 257 | 5.0 | 12.0 | 0.00 | 0.19 | 0.00 | 91 | 1013.2 |
| 20260507072005 | 58 | 307 | 2.0 | 12.0 | 0.00 | 0.19 | 0.00 | 91 | 1013.5 |
| 20260507071004 | 58 | 284 | 4.0 | 10.0 | 0.00 | 0.19 | 0.00 | 91 | 1013.1 |
| 20260507070503 | 58 | 313 | 4.0 | 10.0 | 0.00 | 0.19 | 0.00 | 91 | 1013.2 |
| 20260507070008 | 58 | 306 | 6.0 | 10.0 | 0.00 | 0.19 | 0.00 | 93 | 1013.0 |
| 20260507065503 | 58 | 315 | 4.0 | 6.0 | 0.00 | 0.19 | 0.00 | 93 | 1013.1 |
| 20260507065004 | 58 | 295 | 3.0 | 9.0 | 0.00 | 0.19 | 0.00 | 93 | 1013.0 |
| 20260507064504 | 58 | 232 | 2.0 | 10.0 | 0.00 | 0.19 | 0.00 | 92 | 1012.8 |
| 20260507064003 | 58 | 245 | 6.0 | 10.0 | 0.00 | 0.19 | 0.00 | 92 | 1012.8 |
| 20260507063504 | 58 | 274 | 4.0 | 9.0 | 0.00 | 0.19 | 0.00 | 92 | 1013.0 |
| 20260507063005 | 58 | 274 | 3.0 | 9.0 | 0.00 | 0.19 | 0.00 | 92 | 1013.3 |
| 20260507062503 | 58 | 240 | 4.0 | 7.0 | 0.00 | 0.19 | 0.00 | 92 | 1013.2 |
| 20260507062004 | 58 | 198 | 3.0 | 7.0 | 0.00 | 0.19 | 0.00 | 92 | 1012.9 |
| 20260507061003 | 58 | 215 | 3.0 | 9.0 | 0.00 | 0.19 | 0.00 | 92 | 1012.9 |
| 20260507060504 | 58 | 212 | 3.0 | 9.0 | 0.00 | 0.19 | 0.00 | 92 | 1012.7 |
| 20260507060005 | 58 | 212 | 5.0 | 9.0 | 0.00 | 0.19 | 0.00 | 92 | 1012.9 |
| 20260507055503 | 59 | 229 | 3.0 | 9.0 | 0.00 | 0.19 | 0.00 | 93 | 1013.2 |
| 20260507055003 | 59 | 228 | 4.0 | 12.0 | 0.00 | 0.19 | 0.00 | 92 | 1013.3 |
| 20260507054504 | 59 | 222 | 7.0 | 12.0 | 0.00 | 0.19 | 0.00 | 93 | 1013.4 |
| 20260507054004 | 59 | 213 | 5.0 | 10.0 | 0.00 | 0.19 | 0.00 | 93 | 1013.5 |
| 20260507053503 | 59 | 205 | 5.0 | 10.0 | 0.00 | 0.19 | 0.00 | 93 | 1013.5 |